Tracking 19832 objects as of 24-Aug-2019
HD Live streaming from Space Station
objects crossing your sky now

FLOCK 3K 4

Track FLOCK 3K 4 now!
10-day predictions
FLOCK 3K 4 is classified as:


NORAD ID: 43893
Int'l Code: 2018-111T
Perigee: 482.0 km
Apogee: 516.8 km
Inclination: 97.3 °
Period: 94.5 minutes
Semi major axis: 6870 km
RCS: Unknown
Launch date: December 27, 2018
Source: United States (US)
Launch site: VOSTOCHNY COSMODROME (VOSTO)
aabbcc
Your satellite tracking list
Your tracking list is empty




NASA's NSSDC Master Catalog

Two Line Element Set (TLE):
1 43893U 18111T   19235.75288131 +.00001730 +00000-0 +72642-4 0  9990
2 43893 097.2840 139.0899 0025320 121.1167 239.2559 15.24495141036504
Source of the keplerian elements: AFSPC